Vancouver Int'l Airport, British Columbia

Past 24 Hour Conditions

Date / Time
(PST)
Conditions Temp
(°C)
Humidity
(%)
Dew Point
(°C)
Wind
(km/h)
Pressure
(kPa)
Visibility
(km)
22 December 2014
14:00 Mostly Cloudy 6 89 5 ENE 7 102.9 16
13:00 Mostly Cloudy 6 93 5 E 8 102.9 13
12:00 Mostly Cloudy 6 93 5 ESE 7 102.8 13
11:00 Mostly Cloudy 6 94 5 E 11 102.8 16
10:00 Mostly Cloudy 5   95 4 E 7 102.8 24
9:00 Mostly Cloudy 5   88 4 E 6 102.7 32
8:00 Partly Cloudy 6 92 5 WNW 17 gust 28 102.6 32
7:00 Mainly Clear 5   94 4 W 15 102.4 32
6:00 Clear 6 87 4 WNW 12 102.4 24
5:00 Clear 6 92 5 WNW 21 102.3 24
4:00 Clear 6 89 5 WNW 21 102.2 24
3:00 Clear 6 94 5 W 23 102.1 24
2:00 Clear 6 94 5 W 19 102.0 24
1:00 Clear 6 94 5 W 12 102.0 24
00:00 Clear 5   93 4 NW 6 101.9 24
21 December 2014
23:00 Mostly Cloudy 7 84 4 W 16 101.8 24
22:00 Partly Cloudy 8 78 4 W 3 101.7 24
21:00 Partly Cloudy 8 79 5 calm 101.6 24
20:00 Mostly Cloudy 9 77 5 N 2 101.6 24
19:00 Mostly Cloudy 7 93 6 ENE 8 101.6 24
18:00 Mostly Cloudy 8 93 7 E 9 101.6 24
17:00 Mostly Cloudy 8 94 7 E 13 101.5 24
16:00 Mostly Cloudy 8 94 7 ENE 12 101.5 24
15:00 Mostly Cloudy 9 91 7 E 7 101.4 24
14:00 Mostly Cloudy 10   90 8 E 8 101.3 24
N/A Not available
↑ Highest temperature
↓ Lowest temperature

If you require additional historical weather information, please visit Climate Data Online.

What we are doing

Date modified: